Content
SEND FEEDBACK

Daily
Averages
Monthly
Summary
United States of America

MANGILAO, GUAM


Home > North America > United States > Guam
Elevation: 60 feet     Latitude: 13 27N     Longitude: 144 49E

WEATHER
 
SELECT A DAY
Number of Records: 357,336;   Date Range: 1/1/95 - 12/26/14
 
SHARE

PRINT THIS DATA

[ ← Previous Day ]
WEATHER ALMANAC - APRIL 29, 2013
[ Next Day → ]
[ °C ]   °F
Weather ElementAverageHighLow
Temperature79.7 °F84.6 °F (11:55 am)75.2 °F (5:18 am)
Dewpoint74.5 °F75.4 °F (1:55 am)73 °F (9:55 pm)
Humidity84.5 %94 % (5:12 am)73 % (11:55 am)
Barometer29.86 in29.94 in (10:55 pm)29.81 in (3:55 pm)
Wind Speed11.9 mph19.6 mph (5:00 am)
Wind Gust24.2 mph (3:46 am)
Weather ElementAverage
Visibility8.9 mi
Wind DirectionENE (77.5 °)

Weather ElementTotal
Precipitation0.14 in
Cooling Degree Days14.9 (Base 65)
Growing Degree Days29.9 (Base 50)
Averaged from 72 records on April 29, 2013
WEATHER CONDITIONS BREAKOUT
WIND DIRECTION BREAKOUT
WEATHER BY HOUR - APRIL 29, 2013
[ °C ]   °F
Local TimeTemperatureDewpointHumidityBarometerVisibilityWind DirectionWind SpeedGust SpeedPrecipitationEventsConditions
1:50 AM78.8 °F75.2 °F89 %29.87 in10.0 miNE (50°)12.7 mphMostly Cloudy
1:55 AM79.0 °F75.4 °F89 %29.87 in10.0 miENE (60°)12.7 mphMostly Cloudy
1:58 AM78.8 °F75.2 °F89 %29.87 in10.0 miENE (60°)13.8 mphScattered Clouds
2:55 AM78.6 °F74.3 °F87 %29.86 in10.0 miENE (60°)13.8 mphScattered Clouds
3:02 AM78.8 °F75.2 °F89 %29.85 in10.0 miENE (60°)12.7 mphMostly Cloudy
3:04 AM78.8 °F75.2 °F89 %29.85 in10.0 miENE (70°)11.5 mphScattered Clouds
3:10 AM78.8 °F75.2 °F89 %29.85 in10.0 miENE (60°)11.5 mphMostly Cloudy
3:15 AM78.8 °F75.2 °F89 %29.85 in10.0 miENE (60°)11.5 mphScattered Clouds
3:35 AM78.8 °F75.2 °F89 %29.85 in10.0 miENE (70°)12.7 mphMostly Cloudy
3:36 AM78.8 °F75.2 °F89 %29.85 in10.0 miEast (80°)11.5 mphMostly Cloudy
3:46 AM78.8 °F75.2 °F89 %29.85 in10.0 miENE (70°)16.1 mph24.2 mphLight Drizzle
3:53 AM77.0 °F73.4 °F89 %29.85 in10.0 miENE (70°)13.8 mph24.2 mphLight Drizzle
3:55 AM77.4 °F73.2 °F87 %29.86 in10.0 miENE (60°)13.8 mph0.00 inMostly Cloudy
3:56 AM77.0 °F73.4 °F89 %29.85 in10.0 miENE (60°)13.8 mphMostly Cloudy
4:55 AM78.3 °F75.4 °F91 %29.86 in10.0 miEast (80°)11.5 mphScattered Clouds
4:57 AM78.8 °F75.2 °F89 %29.87 in10.0 miEast (80°)16.1 mphMostly Cloudy
5:00 AM78.8 °F75.2 °F89 %29.87 in8.0 miEast (80°)19.6 mph24.2 mphRainLight Rain
5:02 AM77.0 °F73.4 °F89 %29.87 in5.0 miENE (70°)17.3 mph24.2 mphRainLight Rain
5:05 AM77.0 °F73.4 °F89 %29.87 in4.0 miEast (90°)11.5 mph24.2 mphRainRain
5:06 AM77.0 °F73.4 °F89 %29.87 in4.0 miEast (90°)10.4 mph24.2 mphRainLight Rain
5:09 AM77.0 °F73.4 °F89 %29.87 in4.0 miEast (90°)10.4 mph24.2 mphRainLight Rain
5:12 AM77.0 °F75.2 °F94 %29.87 in4.0 miEast (90°)13.8 mph19.6 mphRainLight Rain
5:14 AM77.0 °F75.2 °F94 %29.87 in3.0 miEast (90°)15.0 mph19.6 mphRainLight Rain
5:15 AM77.0 °F75.2 °F94 %29.87 in2.5 miEast (90°)15.0 mph19.6 mphRainHeavy Rain
5:18 AM75.2 °F73.4 °F94 %29.87 in2.0 miENE (70°)12.7 mph19.6 mphRainLight Rain
5:22 AM75.2 °F73.4 °F94 %29.87 in2.5 miENE (70°)11.5 mphRainLight Rain
5:24 AM77.0 °F73.4 °F89 %29.87 in3.0 miENE (60°)12.7 mphRainLight Rain
5:25 AM77.0 °F73.4 °F89 %29.87 in4.0 miENE (60°)11.5 mphRainLight Rain
5:27 AM77.0 °F73.4 °F89 %29.87 in6.0 miENE (60°)11.5 mphRainLight Rain
5:36 AM77.0 °F75.2 °F94 %29.87 in10.0 miENE (70°)8.1 mphScattered Clouds
5:39 AM77.0 °F75.2 °F94 %29.87 in10.0 miENE (70°)8.1 mphMostly Cloudy
5:43 AM77.0 °F75.2 °F94 %29.87 in10.0 miEast (80°)12.7 mphLight Drizzle
5:46 AM77.0 °F73.4 °F89 %29.87 in10.0 miENE (70°)13.8 mphLight Drizzle
5:52 AM77.0 °F73.4 °F89 %29.87 in10.0 miENE (60°)11.5 mphMostly Cloudy
5:55 AM76.3 °F73.8 °F92 %29.87 in10.0 miENE (70°)10.4 mph0.14 inMostly Cloudy
6:55 AM78.1 °F73.9 °F87 %29.87 in10.0 miEast (90°)11.5 mphClear
7:55 AM79.5 °F73.4 °F81 %29.89 in10.0 miEast (90°)11.5 mphClear
8:54 AM80.6 °F73.4 °F79 %29.89 in10.0 miEast (90°)13.8 mphMostly Cloudy
8:55 AM81.0 °F74.3 °F80 %29.90 in10.0 miEast (90°)13.8 mphMostly Cloudy
8:58 AM80.6 °F73.4 °F79 %29.89 in10.0 miEast (100°)12.7 mphScattered Clouds
9:55 AM82.0 °F74.7 °F78 %29.91 in10.0 miEast (100°)13.8 mphScattered Clouds
10:55 AM82.8 °F74.5 °F76 %29.90 in10.0 miEast (100°)16.1 mphPartly Cloudy
11:55 AM84.6 °F75.0 °F73 %29.88 in10.0 miEast (100°)11.5 mphMostly Cloudy
12:55 PM84.4 °F75.4 °F74 %29.85 in10.0 miEast (80°)13.8 mph17.3 mphMostly Cloudy
1:55 PM84.0 °F75.0 °F74 %29.82 in10.0 miEast (90°)12.7 mphScattered Clouds
2:17 PM82.4 °F75.2 °F79 %29.83 in10.0 miEast (80°)12.7 mphMostly Cloudy
2:20 PM82.4 °F75.2 °F79 %29.82 in10.0 miEast (90°)11.5 mphMostly Cloudy
2:23 PM82.4 °F75.2 °F79 %29.83 in10.0 miEast (90°)12.7 mphScattered Clouds
2:35 PM84.2 °F75.2 °F74 %29.82 in10.0 miEast (90°)11.5 mphMostly Cloudy
2:40 PM84.2 °F75.2 °F74 %29.82 in10.0 miEast (90°)11.5 mphMostly Cloudy
2:50 PM84.2 °F75.2 °F74 %29.82 in10.0 miEast (80°)13.8 mphScattered Clouds
2:51 PM84.2 °F75.2 °F74 %29.82 in10.0 miEast (80°)15.0 mphMostly Cloudy
2:55 PM83.7 °F74.8 °F75 %29.82 in10.0 miEast (100°)15.0 mphMostly Cloudy
3:04 PM84.2 °F75.2 °F74 %29.82 in10.0 miEast (90°)12.7 mphScattered Clouds
3:26 PM84.2 °F75.2 °F74 %29.82 in10.0 miEast (90°)11.5 mphMostly Cloudy
3:55 PM83.7 °F75.0 °F75 %29.81 in10.0 miEast (90°)9.2 mphMostly Cloudy
4:02 PM82.4 °F75.2 °F79 %29.81 in10.0 miEast (90°)9.2 mphScattered Clouds
4:12 PM84.2 °F75.2 °F74 %29.81 in10.0 miENE (70°)10.4 mphMostly Cloudy
4:15 PM84.2 °F75.2 °F74 %29.81 in10.0 miEast (90°)11.5 mphScattered Clouds
4:55 PM82.8 °F74.7 °F76 %29.82 in10.0 miENE (70°)10.4 mphPartly Cloudy
5:55 PM81.1 °F73.4 °F77 %29.84 in10.0 miEast (80°)9.2 mphScattered Clouds
6:55 PM79.5 °F73.9 °F83 %29.86 in10.0 miEast (80°)11.5 mphPartly Cloudy
7:55 PM79.3 °F74.1 °F84 %29.88 in10.0 miEast (80°)8.1 mphScattered Clouds
8:43 PM78.8 °F73.4 °F83 %29.90 in10.0 miENE (70°)8.1 mphMostly Cloudy
8:48 PM78.8 °F75.2 °F89 %29.90 in10.0 miENE (70°)8.1 mphMostly Cloudy
8:54 PM78.8 °F75.2 °F89 %29.90 in10.0 miENE (70°)6.9 mphMostly Cloudy
8:55 PM79.5 °F74.5 °F84 %29.90 in10.0 miENE (70°)6.9 mphMostly Cloudy
9:02 PM78.8 °F73.4 °F83 %29.91 in10.0 miENE (70°)8.1 mphMostly Cloudy
9:04 PM78.8 °F73.4 °F83 %29.91 in10.0 miENE (70°)10.4 mphScattered Clouds
9:55 PM78.4 °F73.0 °F83 %29.93 in10.0 miENE (70°)9.2 mphPartly Cloudy
10:55 PM78.6 °F73.8 °F85 %29.94 in10.0 miENE (70°)9.2 mphScattered Clouds
11:55 PM78.3 °F74.5 °F88 %29.92 in10.0 miEast (80°)6.9 mphPartly Cloudy
Hourly data recorded from PGUA, located miles away from Mangilao, Guam







STORIES FROM OUR PARTNERS